Location: Hilton Head Island
(32.2163°N, 80.7526°W)
Time: 00:17:59
(UTC-05:00)

Vanguard 2 Rocket - Pass Details

Date: 25 February 2026
Orbit: 553 x 3287 km, 32.9° (Epoch: 5 March)

Event Time Altitude Azimuth Distance (km) Brightness Sun altitude
Rises 09:16:37 0° 228° (SW) 6,208 11.0 27.1°
Reaches altitude 10° 09:20:21 10° 225° (SW) 5,475 10.8 27.8°
Maximum altitude 09:37:56 61° 150° (SSE) 3,555 11.0 30.9°
Drops below altitude 10° 09:56:50 10° 76° (ENE) 5,857 11.6 34.0°
Sets 10:00:58 0° 74° (ENE) 6,645 11.7 34.7°
